User: anonymous   Login
Location: Unspecified
(0.0000°N, 0.0000°E)
Time: 06:12:43
(UTC+00:00)
Language:

Transit 2A - Orbit

View from above orbital plane
View from above orbital plane
View from above satellite
View from above satellite

Ground track
Ground track

The orbit data is extracted from the following two-line orbital elements,

1 00045U 60007A   14331.49478821  .00000896  00000-0  25130-3 0  2942
2 00045 066.6955 326.5349 0258623 350.6342 153.2936 14.33133460831895
Epoch (UTC): 27 November 2014 11:52:29
Eccentricity: 0.0258623
inclination: 66.6955°
perigee height: 596 km
apogee height: 966 km
right ascension of ascending node: 326.5349°
argument of perigee: 350.6342°
revolutions per day: 14.33133460
mean anomaly at epoch: 153.2936°
orbit number at epoch: 83189

The dashed part of the orbit path shows where the satellite is in the earth's shadow,  

DLR